This demonstration page uses our WeatherBlox Daily Observations layout. Learn more.

Left ArrowRight Arrow

Hourly Observations for November 15, 2018

Temp ( °F °C ) Dew Point ( °F °C ) Humidity (%) Winds ( mph kmh ) Pressure ( in mb ) Visibility ( mi km ) Precip ( " mm )
12:57 am 00:57 Clear 30 -1.1 28 -2.2 92 92 SSW 8 13 30.06 1018 10 16 0.00 0.00
2:57 am 02:57 Clear 29 -1.7 27 -2.8 92 92 SW 7 11 30.02 1017 10 16 0.00 0.00
3:57 am 03:57 Clear 27 -2.8 25 -3.9 92 92 SW 5 7 30.01 1016 10 16 0.00 0.00
4:57 am 04:57 Clear 27 -2.8 26 -3.3 96 96 SW 6 9 30.00 1016 10 16 0.00 0.00
5:57 am 05:57 Clear 27 -2.8 26 -3.3 96 96 WSW 5 7 30.00 1016 10 16 0.00 0.00
6:57 am 06:57 Clear 26 -3.3 25 -3.9 96 96 WNW 5 7 30.00 1016 10 16 0.00 0.00
7:57 am 07:57 Sunny 29 -1.7 28 -2.2 96 96 WNW 7 11 30.01 1016 10 16 0.00 0.00
8:57 am 08:57 Sunny 37 2.8 32 0 82 82 WNW 8 13 30.01 1016 10 16 0.00 0.00
9:57 am 09:57 Sunny 43 6.1 32 0 65 65 NNW 9 15 30.02 1017 10 16 0.00 0.00
10:57 am 10:57 Sunny 53 11.7 32 0 45 45 NNW 12 19 30.03 1017 10 16 0.00 0.00
11:57 am 11:57 Sunny 59 15 28 -2.2 31 31 N 22 35 30.01 1016 10 16 0.00 0.00
12:57 pm 12:57 Sunny 62 16.7 28 -2.2 28 28 N 21 33 30.00 1016 10 16 0.00 0.00
1:57 pm 13:57 Sunny 62 16.7 28 -2.2 28 28 N 24 39 30.00 1016 10 16 0.00 0.00
2:57 pm 14:57 Sunny 62 16.7 29 -1.7 29 29 NNW 18 30 30.01 1016 10 16 0.00 0.00
3:57 pm 15:57 Sunny 60 15.6 25 -3.9 26 26 NNW 23 37 30.02 1017 10 16 0.00 0.00
4:57 pm 16:57 Sunny 56 13.3 26 -3.3 32 32 NNW 14 22 30.05 1018 10 16 0.00 0.00
5:57 pm 17:57 Clear 50 10 26 -3.3 39 39 NNW 9 15 30.08 1019 10 16 0.00 0.00
6:57 pm 18:57 Clear 44 6.7 25 -3.9 47 47 WNW 7 11 30.10 1019 10 16 0.00 0.00
7:57 pm 19:57 Clear 46 7.8 25 -3.9 44 44 NNW 10 17 30.11 1020 10 16 0.00 0.00
8:57 pm 20:57 Clear 43 6.1 26 -3.3 51 51 NW 8 13 30.11 1020 10 16 0.00 0.00
9:57 pm 21:57 Clear 39 3.9 25 -3.9 57 57 NNW 7 11 30.12 1020 10 16 0.00 0.00
10:57 pm 22:57 Clear 33 0.6 24 -4.4 70 70 NW 7 11 30.12 1020 10 16 0.00 0.00
11:57 pm 23:57 Clear 36 2.2 25 -3.9 64 64 WNW 5 7 30.11 1020 10 16 0.00 0.00

Powered by AerisWeather